Weather History for SKPE - October, 2012

Change the Weather History Date:

Tuesday, October 9, 2012

  Actual Average Record
Temperature  
Mean Temperature 72 °F -  
Max Temperature 81 °F 80 °F 83 °F (2013)
Min Temperature 64 °F 60 °F 62 °F (1996)
Cooling Degree Days 8    
Growing Degree Days 22 (Base 50)    
Moisture  
Dew Point 64 °F    
Average Humidity 75    
Maximum Humidity 88    
Minimum Humidity 51    
Precipitation  
Precipitation 0.04 in 0.36 in - ()
Sea Level Pressure  
Sea Level Pressure 30.11 in    
Wind  
Wind Speed 4 mph ()    
Max Wind Speed 9 mph    
Max Gust Speed -    
Visibility 6.4 miles    
Events Rain , Thunderstorm    
Averages and records for this station are not official NWS values.
T = Trace of Precipitation, MM = Missing Value Source: Averaged Metar Reports

Daily Weather History Graph

Daily Weather History Graph

Search for Another Location

Airport or City:

Trip Planner

Search our weather history database for the weather conditions in past years. The results will help you decide how hot, cold, wet, or windy it might be!

Date:

Astronomy

Oct. 09, 2012 Rise Set
Actual Time 5:48 AM COT 5:51 PM COT
Civil Twilight 5:28 AM COT 6:11 PM COT
Nautical Twilight 5:03 AM COT 6:36 PM COT
Astronomical Twilight 4:39 AM COT 7:00 PM COT
Moon 12:36 AM COT (10/9) 1:10 PM COT (10/9)
Length of Visible Light 12h 43m
Length of Day
12h 02m
Last Quarter, 36% of the Moon is Illuminated
Oct 9
Last Quarter
Oct 15
New
Oct 21
First Quarter
Oct 29
Full
Nov 6
Last Quarter

Hourly Weather History & Observations

Time (COT) Temp. Heat Index Dew Point Humidity Pressure Visibility Wind Dir Wind Speed Gust Speed Precip Events Conditions
12:00 AM 68.0 °F - 64.4 °F 88% 30.13 in 6.2 mi East 5.8 mph - N/A   Scattered Clouds
5:00 AM 66.2 °F - 62.6 °F 88% 30.11 in 6.2 mi East 4.6 mph - N/A   Scattered Clouds
6:00 AM 66.2 °F - 62.6 °F 88% 30.14 in 6.2 mi East 4.6 mph - N/A   Scattered Clouds
7:00 AM 66 °F - 62 °F 82%  in 6 mi East 4.5 mph - -   Haze
7:00 AM 66.2 °F - 62.6 °F 88% 30.15 in 6.2 mi East 4.6 mph - N/A   Partly Cloudy
8:00 AM 71.6 °F - 62.6 °F 73% 30.16 in 6.2 mi NNE 3.5 mph - N/A   Scattered Clouds
9:00 AM 73.4 °F - 64.4 °F 73% 30.18 in 6.2 mi West 4.6 mph - N/A   Partly Cloudy
10:00 AM 74 °F - 67 °F 72%  in 7 mi WSW 4.5 mph - -   Haze
10:00 AM 75.2 °F - 66.2 °F 73% 30.18 in 6.2 mi WSW 3.5 mph - N/A   Scattered Clouds
11:00 AM 77.0 °F - 66.2 °F 69% 30.15 in 6.2 mi West 4.6 mph - N/A   Scattered Clouds
12:00 PM 78.8 °F - 66.2 °F 65% 30.12 in 6.2 mi West 4.6 mph - N/A   Scattered Clouds
1:00 PM 80 °F - 65 °F 51%  in 9 mi WSW 4.5 mph - -   Partly Cloudy
1:00 PM 80.6 °F 82.3 °F 64.4 °F 58% 30.09 in 6.2 mi WSW 3.5 mph - N/A   Scattered Clouds
2:00 PM 78.8 °F - 66.2 °F 65% 30.06 in 6.2 mi North 4.6 mph - N/A   Scattered Clouds
3:00 PM 73.4 °F - 66.2 °F 78% 30.05 in 6.2 mi NE 9.2 mph - N/A Rain , Thunderstorm Light Thunderstorms and Rain
4:00 PM 69.8 °F - 64.4 °F 83% 30.03 in 6.2 mi East 9.2 mph - N/A   Scattered Clouds
5:00 PM 73.4 °F - 62.6 °F 69% 30.04 in 6.2 mi Variable 2.3 mph - N/A   Scattered Clouds
6:00 PM 71.6 °F - 60.8 °F 69% 30.06 in 6.2 mi Variable 2.3 mph - N/A   Scattered Clouds
7:00 PM 70 °F - 62 °F 68%  in 7 mi ENE 2.2 mph - -   Haze
7:00 PM 69.8 °F - 62.6 °F 78% 30.09 in 6.2 mi Calm Calm - N/A   Scattered Clouds
8:00 PM 69.8 °F - 62.6 °F 78% 30.12 in 6.2 mi Calm Calm - N/A   Scattered Clouds
9:00 PM 68.0 °F - 60.8 °F 78% 30.13 in 6.2 mi East 4.6 mph - N/A   Scattered Clouds
10:00 PM 66.2 °F - 62.6 °F 88% 30.15 in 6.2 mi NE 3.5 mph - N/A   Scattered Clouds
11:00 PM 66.2 °F - 62.6 °F 88% 30.13 in 6.2 mi ESE 8.1 mph - N/A   Scattered Clouds